Liberia, Costa Rica

7:22 AM CST on May 27, 2017 (GMT -0600)
Daniel Oduber Quiros International

Weather History for MRLB - September, 2012

Change the Weather History Date:

Wednesday, September 26, 2012

  Actual Average Record
Temperature  
Mean Temperature 81 °F -  
Max Temperature 91 °F 84 °F 91 °F (2012)
Min Temperature 71 °F 73 °F 69 °F (2010)
Cooling Degree Days 16    
Growing Degree Days 31 (Base 50)    
Moisture  
Dew Point 74 °F    
Average Humidity 82    
Maximum Humidity 100    
Minimum Humidity 46    
Precipitation  
Precipitation 0.04 in - - ()
Sea Level Pressure  
Sea Level Pressure 29.86 in    
Wind  
Wind Speed 4 mph ()    
Max Wind Speed 12 mph    
Max Gust Speed -    
Visibility 6.3 miles    
Events Fog , Rain , Thunderstorm    
Averages and records for this station are not official NWS values.
T = Trace of Precipitation, MM = Missing Value Source: Averaged Metar Reports

Daily Weather History Graph

Daily Weather History Graph

Search for Another Location

Airport or City:

Trip Planner

Search our weather history database for the weather conditions in past years. The results will help you decide how hot, cold, wet, or windy it might be!

Date:

Astronomy

Sep. 26, 2012 Rise Set
Actual Time 5:31 AM CST 5:35 PM CST
Civil Twilight 5:10 AM CST 5:56 PM CST
Nautical Twilight 4:45 AM CST 6:20 PM CST
Astronomical Twilight 4:21 AM CST 6:45 PM CST
Moon 3:08 PM CST (9/26) 2:28 AM CST (9/26)
Length of Visible Light 12h 46m
Length of Day
12h 04m
Waxing Gibbous, 88% of the Moon is Illuminated
Sep 26
Waxing Gibbous
Sep 29
Full
Oct 8
Last Quarter
Oct 15
New
Oct 21
First Quarter

Hourly Weather History & Observations

Time (CST) Temp. Heat Index Dew Point Humidity Pressure Visibility Wind Dir Wind Speed Gust Speed Precip Events Conditions
6:00 AM 72 °F - 71 °F 96% 29.86 in 2 mi Calm Calm - -   Mist
6:00 AM 73.4 °F - 71.6 °F 94% 29.85 in 1.9 mi Calm Calm - N/A   Mostly Cloudy
6:30 AM 73.4 °F - 73.4 °F 100% 29.85 in 0.3 mi South 2.3 mph - N/A Fog Fog
6:45 AM 75.2 °F - 73.4 °F 94% 29.86 in 6.2 mi South 4.6 mph - N/A Fog Patches of Fog
7:00 AM 77.0 °F - 73.4 °F 89% 29.87 in 6.2 mi South 5.8 mph - N/A   Mostly Cloudy
8:00 AM 78.8 °F - 73.4 °F 83% 29.90 in 6.2 mi South 5.8 mph - N/A   Mostly Cloudy
9:00 AM 83 °F - 74 °F 68% 29.93 in 12 mi SSE 5.8 mph - -   Partly Cloudy
9:00 AM 82.4 °F 88.2 °F 73.4 °F 74% 29.91 in 6.2 mi SSE 5.8 mph - N/A   Mostly Cloudy
10:00 AM 86.0 °F 93.4 °F 73.4 °F 66% 29.91 in 6.2 mi South 4.6 mph - N/A   Scattered Clouds
11:00 AM 87.8 °F 95.6 °F 73.4 °F 62% 29.88 in 6.2 mi ENE 2.3 mph - N/A   Scattered Clouds
12:00 PM 89 °F - 71 °F 46% 29.88 in 12 mi SSE 2.3 mph - -   Mostly Cloudy
12:00 PM 89.6 °F 96.2 °F 71.6 °F 55% 29.86 in 6.2 mi SSE 2.3 mph - N/A   Mostly Cloudy
1:00 PM 86.0 °F 95.1 °F 75.2 °F 70% 29.83 in 6.2 mi West 9.2 mph - N/A   Scattered Clouds
2:00 PM 86.0 °F 95.1 °F 75.2 °F 70% 29.80 in 6.2 mi WNW 11.5 mph - N/A   Scattered Clouds
2:29 PM 78.8 °F - 77.0 °F 94% 29.81 in 6.2 mi SW 4.6 mph - N/A Rain , Thunderstorm Light Rain Showers
3:00 PM 77.0 °F - 75.2 °F 94% 29.81 in 6.2 mi SW 8.1 mph - N/A Rain Rain
4:00 PM 77.0 °F - 75.2 °F 94% 29.81 in 6.2 mi WSW 5.8 mph - N/A   Mostly Cloudy
5:00 PM 77.0 °F - 75.2 °F 94% 29.83 in 6.2 mi SSE 4.6 mph - N/A   Mostly Cloudy
6:00 PM 77 °F - 74 °F 89% 29.86 in 12 mi SSE 11.2 mph - -   Scattered Clouds
6:00 PM 77.0 °F - 73.4 °F 89% 29.85 in 6.2 mi SSE 5.8 mph - N/A   Scattered Clouds
7:00 PM 77.0 °F - 75.2 °F 94% 29.88 in 6.2 mi NNE 4.6 mph - N/A   Scattered Clouds
8:00 PM 77.0 °F - 73.4 °F 89% 29.89 in 6.2 mi Calm Calm - N/A   Scattered Clouds